Hourly Data Report for October 23, 2014

All times are specified in Local Standard Time (LST). Add 1 hour to adjust for Daylight Saving Time where and when it is observed.

CAPE DORSET A
NUNAVUT

64°13'49.000" N
76°31'30.000" W
48.20 m
2400637
71366
YTE

Download Data

Hourly Data (October 2014)
Hourly Data Report for October 23, 2014
Temp Definition
°C
Dew Point Temp Definition
°C
Rel Hum Definition
%
Wind Dir Definition
10's deg

Wind Spd Definition
km/h
Visibility Definition
km
Stn Press Definition
kPa
Hmdx Definition


Wind Chill Definition


Weather Definition


TIME
00:00 Legend Double Dagger -3.6 -6.4 81 2 18 16.1 100.62   -9 LegendNANA
01:00 Legend Double Dagger -4.2 -5.8 89 34 18 16.1 100.69   -10 Snow
02:00 Legend Double Dagger -4.9 -7.5 82 34 26 16.1 100.78   -12 LegendNANA
03:00 Legend Double Dagger -5.7 -9.0 78 34 30 16.1 100.85   -14 LegendNANA
04:00 Legend Double Dagger -6.5 -10.7 72 1 18 16.1 100.97   -13 LegendNANA
05:00 Legend Double Dagger -7.0 -11.3 72 1 17 16.1 101.08   -13 Snow
06:00 Legend Double Dagger -7.3 -10.7 77 34 21 16.1 101.15   -15 Snow
07:00 Legend Double Dagger -8.4 -12.3 74 34 22 16.1 101.22   -16 LegendNANA
08:00 Legend Double Dagger -8.2 -12.3 73 34 26 16.1 101.29   -17 Snow
09:00 Legend Double Dagger -8.5 -12.6 72 34 22 16.1 101.37   -16 Snow
10:00 Legend Double Dagger -8.6 -12.7 73 36 24 16.1 101.44   -17 Snow
11:00 Legend Double Dagger -8.6 -13.1 70 33 22 16.1 101.45   -16 Snow
12:00 Legend Double Dagger -8.6 -13.1 70 33 18 16.1 101.54   -16 LegendNANA
13:00 Legend Double Dagger -8.6 -13.0 71 34 18 16.1 101.59   -16 LegendNANA
14:00 Legend Double Dagger -8.1 -12.6 70 31 18 16.1 101.66   -15 LegendNANA
15:00 Legend Double Dagger -8.1 -12.8 69 31 22 16.1 101.67   -16 LegendNANA
16:00 Legend Double Dagger -8.3 -12.4 73 29 17 16.1 101.71   -15 LegendNANA
17:00 Legend Double Dagger -9.1 -12.6 76 26 13 16.1 101.75   -15 Snow
18:00 Legend Double Dagger -9.7 -12.9 78 26 11 16.1 101.79   -15 LegendNANA
19:00 Legend Double Dagger -9.4 -12.4 79 28 24 16.1 101.79   -18 LegendNANA
20:00 Legend Double Dagger -9.5 -12.3 80 28 21 16.1 101.79   -17 LegendNANA
21:00 Legend Double Dagger -8.9 -11.8 80 29 28 16.1 101.76   -18 LegendNANA
22:00 Legend Double Dagger -9.1 -11.7 81 31 35 16.1 101.74   -19 LegendNANA
23:00 Legend Double Dagger -8.6 -10.8 84 29 37 16.1 101.73   -19 LegendNANA

Notes on Data Quality.

Legend

  • E = Estimated
  • M = Missing
  • NA = Not Available
  • ‡ = Partner data that is not subject to review by the National Climate Archives
Date modified: